FALCON 9 DEB (52589 NORAD) Tracking and Keplerian Element Data

This shows tracking and keplerian element data for the satellite.

Feedback or suggestion? Click here.




ElementValue
Catalog52589
NameFALCON 9 DEB
Epoch Orbit833
Epoch Day183.01266732
Epoch Year2022
RAAN40.5067
Inclination53.2243
Eccentricity0.0007749
Argument of Perigee265.8231
Mean Anonmoly94.1937
Mean Motion16.51244927
Decay Rate0.12457752
L11 52589U 22051BF 22183.01266732 .12457752 12650-4 11001-3 0 9999
L22 52589 53.2243 40.5067 0007749 265.8231 94.1937 16.51244927 8334

Live tracking and technical data element details for FALCON 9 DEB (NORAD 52589). FALCON 9 DEB can be tracked NOW for your location showing map with azimuth and elevation plus other details from your city location.

Track the satellite on the map from your city or location and see movement details for azimuth, elevation, latitude, longitude, range, height, and movement on the map or in text.







IsCatalogInMostPopularTable: catalog: 52589, numindb: 6
Update: records affected: 1



GetName: 52589 FALCON 9 DEB

Hit Count: updated at: Sun, 14 Aug 2022 01:24:35 GMT